Location: Tamazert
(32.6352°N, 5.2072°W)
Time: 07:52:55
(UTC+00:00)

Tiros 1 despin weight - Pass Details

Date: 11 October 2022
Orbit: 590 x 637 km, 48.2° (Epoch: 28 November)

Event Time Altitude Azimuth Distance (km) Brightness Sun altitude
Rises 18:55:19 0° 312° (NW) 2,868 ? -13.9°
Reaches altitude 10° 18:57:39 10° 317° (NW) 1,970 ? -14.4°
Maximum altitude 19:02:07 55° 36° (NE) 742 ? -15.4°
Enters shadow 19:04:21 27° 103° (ESE) 1,185 ? -15.8°
Drops below altitude 10° 19:06:37 10° 114° (ESE) 1,993 - -16.3°
Sets 19:08:59 0° 119° (ESE) 2,904 - -16.8°
